Regional Weather Roundup
Issued by NWS Northern Indiana

Home | Current Version | Previous Version | Graphics & Text | Print | Product List | Glossary On
Versions: 1 2 3 4 5 6 7 8 9 10 11 12 13 14 15 16 17 18 19 20 21 22 23 24 25 26 27 28 29 30 31 32 33 34 35 36 37 38 39 40 41 42 43 44 45 46 47 48 49 50
000
ASUS43 KIWX 240500
RWRIWX

KIWX WEATHER ROUNDUP
NATIONAL WEATHER SERVICE NORTHERN INDIANA
100 AM EDT MON JUL 24 2017

NOTE: "FAIR" INDICATES FEW OR NO CLOUDS BELOW 12,000 FEET WITH NO
SIGNIFICANT WEATHER AND/OR OBSTRUCTIONS TO VISIBILITY.

* THESE STATIONS ARE NOT UNDER NWS QUALITY CONTROL. THEY ALSO MAY NOT
  REPORT WEATHER SUCH AS PRECIPITATION OR FOG.

INZ001>027-240600-
NORTHERN INDIANA

CITY           SKY/WX    TMP DP  RH WIND       PRES   REMARKS
MICHIGAN CITY* PTCLDY    70  68  94 N8        29.87R
SOUTH BEND     MOCLDY    70  66  87 NW8       29.87R
GOSHEN         MOCLDY    69  63  81 NW5       29.85R
MONTICELLO*    CLEAR     68  66  94 CALM      29.86R
FORT WAYNE     PTCLDY    71  67  87 W5        29.83S

$$
INZ028>050-240600-
CENTRAL INDIANA

CITY           SKY/WX    TMP DP  RH WIND       PRES   REMARKS
LAFAYETTE      CLEAR     67  66  97 W3        29.86R
KOKOMO*          N/A     69  65  86 MISG        N/A
MUNCIE*        CLEAR     71  67  87 S3        29.86R
INDIANAPOLIS   PTCLDY    74  71  91 NW5       29.86R

$$
MIZ043>046-050>051-056>058-064>065-071>073-077>080-240600-
SOUTHWEST LOWER MICHIGAN

CITY           SKY/WX    TMP DP  RH WIND       PRES   REMARKS
BATTLE CREEK   CLEAR     69  64  84 N5        29.85R
BENTON HARBOR  CLOUDY    71  66  84 VRB5      29.86R
COLDWATER*     CLEAR     69  67  94 CALM      29.85R
HILLSDALE*     CLOUDY    68  63  83 CALM      29.84R
HOLLAND        CLEAR     68  61  78 N5        29.87R
KALAMAZOO      CLEAR     69  63  81 N8        29.85R
STURGIS*       CLOUDY    70  65  82 N5        29.84R
THREE RIVERS*  CLOUDY    69  65  88 CALM      29.85R

$$
OHZ001>008-015>018-024>025-240600-
NORTHWEST OHIO

CITY           SKY/WX    TMP DP  RH WIND       PRES   REMARKS
DEFIANCE       CLOUDY   N/A N/A N/A CALM      29.82R
FINDLAY        PTCLDY    70  65  84 SW7       29.81R
TOLEDO EXPRESS PTCLDY    70  70 100 W8        29.80R
TOLEDO METCALF PTCLDY    71  69  93 SW3       29.81R
LIMA           PTCLDY    69  66  90 SW5       29.84R

$$
AND FOR LAKE MICHIGAN COASTAL AND OPEN LAKE BUOY OBSERVATIONS

STATION/POSITION TEMP    WIND        PRES    VSBY  WAVE
                 AIR SEA DIR/SP/G                  HT/PER
                 (F)     (DEG/KT/KT) (MB)    (MI)  (FT/S)
CALUMET HARBOR    73     340/  7/ 11 1011.1R
MICHIGAN CITY     73     360/ 20/ 21   N/A
BURNS HARBOR      74      10/ 13/ 15 1011.9R
SAINT JOSEPH      72     360/ 12/ 15 1011.9
SOUTH LAKE BUOY   68 70   10/ 21/ 27 1010.7          3/ 4
4 MI NW BRIDGMAN  72 75   30/ 16/ 19 1011.0R         3/ 3
MICHIGAN CITY     73 75   20/ 16/ 19   N/A           2/ 3

$$
&&



USA.gov is the U.S. government's official web portal to all federal, state and local government web resources and services.